SCP
0 0 0 0 0 0 0 0 0 0 0 0 0 0 0 0 0 0 0 0 0 0 0 0 0 0 0 0 0 0 0 0 0 0 0 1 1 1 1 1 1 1 1 1
0 0 0 0 0 0 0 0 0 0 0 0 0 0 0 0 0 0 0 0 0 0 0 0 0 0 0 0 0 0 0 0 0 0 0 1 1 1 1 1 1 1 1 1
0 0 0 0 0 0 0 0 0 0 0 0 0 0 0 0 0 0 0 0 0 0 0 0 0 0 0 0 0 0 0 0 0 0 0 0 1 0 0 1 1 1 1 1
0 0 0 0 0 0 0 0 0 0 0 0 0 0 0 0 0 0 0 0 0 0 0 0 0 0 0 0 0 0 0 0 0 0 0 0 1 0 0 0 0 1 1 1
0 0 0 0 0 0 0 0 0 0 0 0 0 0 0 0 0 0 0 0 0 0 0 0 0 0 0 0 0 0 0 0 0 0 0 0 0 0 0 0 0 0 0 1
0 0 0 0 0 0 0 0 0 0 0 0 0 0 0 0 0 0 0 0 0 0 0 0 0 0 0 0 0 0 0 0 0 0 0 0 0 0 0 0 0 0 0 0
0 0 0 0 0 0 0 0 0 0 0 0 0 0 0 0 0 0 0 0 0 0 0 0 0 0 0 0 0 0 0 0 0 0 0 0 0 0 0 0 0 0 0 0
0 0 0 0 0 0 0 0 0 0 0 0 0 0 0 0 0 0 0 0 0 0 0 0 0 0 0 0 0 0 0 0 0 0 0 0 0 0 0 0 0 0 0 0
0 0 0 0 0 0 0 0 0 0 0 0 0 0 0 0 0 0 0 0 0 0 0 0 0 0 0 0 0 0 0 0 0 0 0 0 0 0 0 0 0 0 0 0
0 0 0 0 0 0 0 0 0 0 0 0 0 0 0 0 0 0 0 0 0 0 0 0 0 0 0 0 0 0 0 0 0 0 0 0 0 0 0 0 0 0 0 0
0 0 0 0 0 0 0 0 0 0 0 0 0 0 0 0 0 0 0 0 0 0 0 0 0 0 0 0 0 0 0 0 0 0 0 0 0 0 0 0 0 0 0 0
0 0 0 0 0 0 0 0 0 0 0 0 0 0 0 0 0 0 0 0 0 0 0 0 0 0 0 0 0 0 0 0 0 0 0 0 0 0 0 0 0 0 0 0
0 0 0 0 0 0 0 0 0 0 0 0 0 0 0 0 0 0 0 0 0 0 0 0 0 0 0 0 0 0 0 0 0 0 0 0 0 0 0 0 0 0 0 0
0 0 0 0 0 0 0 0 0 0 0 0 0 0 0 0 0 0 0 0 0 0 0 0 0 0 0 0 0 0 0 0 0 0 0 0 0 0 0 0 0 0 0 0
0 0 0 0 0 0 0 0 0 0 0 0 0 0 0 0 0 0 0 0 0 0 0 0 0 0 0 0 0 0 0 0 0 0 0 0 0 0 0 0 0 0 0 0
0 0 0 0 0 0 0 0 0 0 0 0 0 0 0 0 0 0 0 0 0 0 0 0 0 0 0 0 0 0 0 0 0 0 0 0 0 0 0 0 0 0 0 0
0 0 0 0 0 0 0 0 0 0 0 0 0 0 0 0 0 0 0 0 0 0 0 0 0 0 0 0 0 0 0 0 0 0 0 0 0 0 0 0 0 0 0 0
0 0 0 0 0 0 0 0 0 0 0 0 0 0 0 0 0 0 0 0 0 0 0 0 0 0 0 0 0 0 0 0 0 0 0 0 0 0 0 0 0 0 0 0
0 0 0 0 0 0 0 0 0 0 0 0 0 0 0 0 0 0 0 0 0 0 0 0 0 0 0 0 0 0 0 0 0 0 0 0 0 0 0 0 0 0 0 0
0 0 0 0 0 0 0 0 0 0 0 0 0 0 0 0 0 0 0 0 0 0 0 0 0 0 0 0 0 0 0 0 0 0 0 0 0 0 0 0 0 0 0 0
0 0 0 0 0 0 0 0 0 0 0 0 0 0 0 0 0 0 0 0 0 0 0 0 0 0 0 0 0 0 0 0 0 0 0 0 0 0 0 0 0 0 0 0
0 0 0 0 0 0 0 0 0 0 0 0 0 0 0 0 0 0 0 0 0 0 0 0 0 0 0 0 0 0 0 0 0 0 0 0 0 0 0 0 0 0 0 0
0 0 0 0 0 0 0 0 0 0 0 0 0 0 0 0 0 0 0 0 0 0 0 0 0 0 0 0 0 0 0 0 0 0 0 0 0 0 0 0 0 0 0 0
0 0 0 0 0 0 0 0 0 0 0 0 0 0 0 0 0 0 0 0 0 0 0 0 0 0 0 0 0 0 0 0 0 0 0 0 0 0 0 0 0 0 0 0
0 0 0 0 0 0 0 0 0 0 0 0 0 0 0 0 0 0 0 0 0 0 0 0 0 0 0 0 0 0 0 0 0 0 0 0 0 0 0 0 0 0 0 0
0 0 0 0 0 0 0 0 0 0 0 0 0 0 0 0 0 0 0 0 0 0 0 0 0 0 0 0 0 0 0 0 0 0 0 0 0 0 0 0 0 0 0 0
Wind_Speed
5 4 6 7 9 8 7 8 8 6 2 4 8 11 10 6 5 5 4 4 3 2 1 1 1 1 1 1 1 3 3 3 3 2 2 2 3 2 2 2 2 3 3 3
3 7 7 4 4 6 7 9 9 6 1 3 7 11 10 7 6 6 5 4 3 2 1 1 1 1 1 1 1 2 3 3 3 2 2 2 2 2 2 2 2 3 3 2
6 2 2 3 5 7 8 8 8 6 5 6 6 8 8 5 5 4 3 3 2 2 2 1 1 1 0 1 2 2 2 3 2 2 2 1 1 1 2 2 2 3 3 3
6 4 3 4 6 6 8 3 4 5 4 4 4 6 5 3 3 4 3 2 1 1 1 1 1 1 0 0 1 1 2 2 2 2 3 4 3 3 3 2 2 3 3 3
4 2 3 5 5 5 3 2 3 5 5 6 5 6 6 3 4 4 4 3 2 2 1 1 2 1 1 1 1 1 1 1 2 2 2 3 2 1 1 2 3 2 2 3
4 1 2 3 2 2 1 2 4 4 3 7 8 7 6 3 4 3 3 3 2 2 2 2 2 2 2 2 2 1 1 1 1 2 2 2 2 1 2 2 3 2 2 2
4 4 2 0 1 1 2 2 1 2 4 7 5 6 6 1 1 2 3 3 3 3 3 3 3 3 3 3 2 2 2 1 1 1 2 2 2 2 2 2 2 2 2 2
3 4 5 4 4 3 5 4 3 3 4 3 2 6 4 1 3 4 4 4 3 3 3 3 3 3 2 3 2 2 2 2 1 1 0 1 1 1 1 1 1 2 2 2
3 3 1 2 2 2 4 5 2 2 2 4 5 4 2 1 2 2 3 3 3 3 3 3 4 4 3 3 3 3 2 3 2 2 2 1 1 0 0 0 1 1 1 1
3 3 1 1 1 3 3 1 2 3 3 5 5 5 3 2 2 1 2 2 2 3 3 3 4 4 3 3 3 3 3 3 3 3 2 1 1 1 1 1 1 0 0 0
2 2 1 1 5 5 3 2 3 3 3 3 4 3 2 1 2 2 2 3 3 3 2 3 3 3 3 3 3 3 3 3 3 3 2 2 2 2 2 1 1 0 0 0
2 2 3 4 2 1 3 5 5 4 5 4 4 5 2 4 3 3 3 3 3 2 2 2 2 3 3 3 3 3 3 3 3 2 2 2 2 2 2 2 2 1 1 0
2 2 1 2 1 1 2 4 5 4 2 4 5 6 1 4 3 3 2 1 1 2 2 3 3 3 3 2 2 2 2 2 2 2 2 3 3 3 2 2 2 2 1 1
2 3 6 7 3 2 4 5 6 5 5 6 8 8 5 3 2 1 0 0 1 2 2 2 2 3 3 3 2 2 2 2 2 2 2 2 2 2 2 2 2 2 2 1
2 4 5 7 7 5 6 8 8 10 10 9 9 9 7 5 4 3 2 1 1 1 1 2 2 2 2 2 2 2 2 2 2 2 2 2 2 2 2 2 2 2 2 1
2 3 3 6 7 7 9 10 10 11 11 12 12 12 6 5 3 2 1 1 0 0 1 2 2 2 2 2 2 2 2 2 2 1 2 2 2 2 2 2 2 2 2 2
3 3 3 5 4 5 10 9 9 8 7 8 12 10 5 4 3 2 1 1 0 1 1 2 2 2 2 2 2 2 3 3 2 2 2 3 2 2 2 2 2 2 2 2
5 4 3 3 2 10 8 3 7 9 8 7 5 3 3 2 2 2 1 1 1 2 2 2 2 3 3 2 2 2 2 2 2 2 2 3 3 3 2 2 2 2 2 2
6 6 4 3 6 10 6 2 2 4 5 3 4 3 2 1 2 1 3 3 2 2 2 2 3 3 3 2 2 2 2 2 3 3 3 3 3 3 3 2 2 2 2 2
3 4 5 5 6 8 4 1 1 1 5 1 1 2 1 1 2 2 2 4 4 4 3 3 3 4 3 3 3 2 2 2 3 3 3 3 3 2 2 2 2 2 2 2
3 5 7 8 8 8 2 1 1 4 4 2 2 1 1 1 2 1 2 3 3 3 3 3 3 3 3 4 3 2 2 3 4 4 4 3 3 3 2 2 2 2 2 2
7 6 7 6 8 9 1 1 3 2 2 2 2 2 2 2 1 1 1 2 2 3 3 3 3 3 4 4 3 3 3 4 4 4 3 3 3 3 2 2 2 2 1 1
6 6 4 6 6 0 2 1 1 1 1 2 1 1 1 1 1 1 1 1 2 2 3 3 3 3 4 4 3 3 4 4 4 3 3 3 3 3 3 2 2 2 1 1
3 1 2 4 4 2 1 0 1 1 1 2 2 1 1 1 1 1 0 1 2 2 2 2 2 2 3 4 3 3 4 4 3 3 3 3 3 3 3 2 2 2 1 1
3 2 3 5 4 2 3 2 1 1 1 2 2 1 1 1 1 1 0 1 1 1 2 2 2 2 3 3 3 3 3 3 3 3 3 3 2 2 3 2 2 2 2 2
4 5 6 6 3 3 3 1 1 1 1 1 1 1 1 1 1 1 1 0 1 1 2 2 2 2 3 3 3 3 2 2 2 2 2 2 2 2 2 2 3 4 4 5
Wind_Direction
185 221 223 224 225 257 288 287 280 277 197 220 244 260 266 258 240 229 230 231 234 220 181 141 148 145 146 152 172 166 161 161 151 158 175 173 172 164 155 154 155 160 158 161
202 239 244 262 271 266 269 276 277 281 203 237 262 270 268 245 233 226 224 225 230 222 176 107 95 102 119 164 199 179 166 168 171 178 186 182 167 173 168 158 163 170 163 163
228 251 246 248 256 258 254 254 269 286 304 252 261 278 243 228 214 210 208 206 206 188 176 143 106 87 72 194 198 193 175 169 171 157 135 128 132 133 161 180 184 188 177 174
248 257 265 253 250 248 261 277 273 277 281 268 219 280 261 223 204 198 193 192 190 137 134 133 120 101 112 279 189 174 156 157 153 151 156 165 182 187 193 186 184 189 180 172
243 208 234 243 248 246 258 327 286 268 262 274 242 248 268 217 225 212 186 170 157 136 118 113 113 93 54 24 90 120 117 133 135 145 164 179 197 198 173 162 164 178 178 176
255 269 246 259 278 254 269 279 264 248 243 253 226 218 265 224 221 185 151 146 134 108 95 81 76 63 37 36 50 89 105 110 124 142 165 184 195 183 169 171 173 180 180 184
248 226 203 282 230 211 195 195 258 234 220 244 206 213 248 261 64 104 121 120 114 102 84 72 64 53 37 33 36 58 80 71 92 141 175 187 193 196 190 182 186 181 183 192
246 245 187 205 211 195 204 210 210 235 243 275 211 228 242 108 72 74 93 96 94 93 83 73 59 46 40 41 39 46 53 48 47 63 159 156 173 199 211 198 185 194 200 199
253 261 126 187 268 237 189 216 270 284 278 274 250 237 254 117 100 96 100 92 88 85 76 71 61 46 34 35 34 41 43 39 35 28 32 35 35 55 189 175 162 179 217 195
285 280 214 96 321 280 282 246 155 199 228 253 250 237 239 203 194 124 116 106 86 82 71 64 61 48 34 39 37 41 41 39 32 24 23 31 25 28 43 100 130 137 246 162
279 251 241 184 204 201 188 218 218 230 235 238 261 255 22 98 138 134 104 104 104 100 91 72 60 51 40 44 47 45 41 40 33 22 18 26 26 28 38 41 36 62 62 158
227 236 247 230 201 282 205 214 200 212 240 237 259 266 15 48 68 99 95 92 90 95 88 82 75 60 45 45 44 41 34 37 30 24 23 28 32 36 37 22 12 21 48 84
183 192 243 263 236 306 257 239 234 249 263 236 236 254 54 52 50 79 92 89 89 99 86 65 55 48 29 31 36 39 34 29 26 31 35 37 32 31 29 19 14 19 29 52
194 207 206 221 240 197 242 249 235 223 233 244 238 257 280 307 307 315 331 249 142 107 88 65 44 35 17 20 23 25 23 25 28 35 40 40 27 21 18 11 11 14 18 19
204 232 232 255 274 272 256 248 231 224 230 237 253 259 271 282 280 262 244 217 140 103 73 51 28 16 9 16 11 15 8 15 18 27 35 26 19 21 24 15 8 17 14 8
217 240 247 261 261 266 266 256 241 239 241 247 262 268 277 286 294 293 273 161 135 24 19 19 17 11 8 6 354 356 355 2 14 18 14 18 22 24 22 10 10 16 12 9
209 204 231 261 273 287 260 238 230 231 228 229 246 260 281 283 285 278 229 152 224 338 1 3 357 350 351 348 347 343 343 352 11 16 13 10 10 10 6 0 9 15 13 11
212 216 231 259 277 245 247 194 211 225 237 234 254 286 295 289 304 315 75 88 22 7 6 357 352 350 355 359 356 353 0 1 8 15 7 2 358 357 357 1 359 352 358 3
213 206 218 220 243 262 265 233 221 230 245 244 257 276 306 345 349 316 34 43 40 24 11 4 360 358 5 9 360 6 10 8 10 1 352 348 347 347 348 349 341 339 340 343
218 202 214 225 238 246 254 230 289 266 255 328 289 273 302 333 276 273 28 34 35 34 32 21 14 14 14 7 7 22 12 8 353 340 336 336 339 337 332 334 332 333 329 329
190 211 219 229 241 255 270 301 102 205 252 3 358 333 326 295 253 316 47 44 45 41 33 27 28 25 14 6 11 18 12 354 338 336 337 341 342 332 330 338 338 333 337 338
194 200 213 216 232 246 84 123 193 231 22 29 17 15 1 340 346 34 67 58 46 43 34 28 27 20 15 13 16 15 2 349 349 344 344 345 344 340 343 344 339 341 342 337
209 205 207 210 224 261 106 136 54 31 16 340 335 346 347 313 312 342 49 51 49 45 30 21 18 16 15 13 13 5 349 352 350 350 346 342 342 344 346 341 340 342 345 337
235 238 235 251 249 225 196 68 357 359 336 332 330 315 270 263 267 283 69 43 33 34 26 17 11 4 0 2 7 2 354 355 352 345 342 343 346 347 347 338 337 332 327 327
229 204 230 246 260 269 235 223 237 304 353 354 354 356 321 261 277 277 320 1 360 5 16 15 355 339 341 350 353 357 360 3 351 337 338 339 342 338 332 329 314 306 294 289
216 209 216 239 229 234 254 235 205 218 242 242 260 326 347 300 274 301 303 331 357 351 2 352 337 327 327 334 335 348 354 359 347 332 332 328 326 328 326 324 321 314 311 312